Theta_e
349 349 348 350 350 352 351 349 346 349 349 349 351 351 352 350 349 350 354 357 356 355 357 354 355 355 354 354 352 354 353 336 333 346 346 345 344 344 343 344 345 346 346
350 349 350 350 350 352 352 351 347 348 350 350 350 350 351 350 346 348 352 354 355 355 356 358 356 356 355 357 351 349 349 347 341 350 349 347 344 343 342 346 346 346 345
351 351 350 350 350 351 353 354 350 350 350 350 352 354 355 356 353 350 348 348 354 355 357 358 359 358 360 355 356 351 351 353 352 352 349 348 345 344 343 344 347 347 346
350 350 350 350 350 350 352 352 354 350 350 352 350 353 350 350 348 347 345 347 351 353 354 357 358 359 354 360 357 358 356 354 354 352 350 349 347 351 347 342 346 346 342
349 350 349 349 350 350 351 352 354 355 353 351 350 352 353 348 349 350 350 353 353 354 352 353 356 357 357 357 360 358 357 354 354 353 353 351 350 348 348 346 348 346 340
352 349 348 348 349 349 350 351 353 355 356 356 355 353 353 353 350 350 350 349 347 348 350 353 354 356 358 358 360 359 358 357 357 352 351 353 350 349 346 344 345 347 343
353 352 350 349 349 350 350 351 353 356 356 356 356 356 355 355 355 356 351 348 345 345 347 352 355 353 355 359 359 358 360 358 358 358 354 352 350 345 342 343 345 347 345
354 354 352 349 348 349 349 350 352 356 357 355 356 356 357 355 354 354 352 348 346 344 345 349 352 351 352 352 354 356 357 359 358 359 357 352 347 337 340 344 346 345 343
354 355 353 351 349 349 349 349 351 354 356 356 356 357 357 356 352 353 354 352 352 350 350 352 353 352 352 355 359 356 358 356 358 359 355 347 337 338 344 346 345 343 337
352 353 354 352 351 349 349 348 350 353 355 356 356 356 357 357 356 355 356 355 353 354 355 354 354 354 354 355 356 355 354 360 361 354 347 338 340 344 344 343 341 334 330
349 351 352 352 351 351 350 349 349 351 355 355 355 355 356 356 357 356 356 357 357 357 358 357 357 357 356 357 359 360 361 361 356 348 341 341 343 336 336 334 325 321 320
346 349 351 351 351 351 351 351 350 350 353 355 355 356 356 357 356 357 357 357 358 358 358 358 357 358 358 360 361 361 362 358 353 348 347 345 337 335 329 323 320 319 319
345 348 350 351 351 350 350 351 352 352 352 354 356 357 358 358 357 358 358 358 358 358 357 356 358 359 361 362 362 363 359 356 349 349 348 341 337 328 321 319 318 319 319
349 348 351 355 352 351 351 351 351 352 353 355 356 357 358 358 358 359 358 358 359 358 357 358 359 361 363 362 364 360 353 348 350 348 344 337 328 322 321 321 321 321 319
351 349 352 356 355 353 353 352 352 352 354 355 356 357 358 358 358 358 358 358 358 358 358 359 360 363 363 363 364 356 350 350 346 340 331 325 318 319 319 320 321 320 318
351 351 352 354 355 354 354 354 353 353 354 356 356 357 358 358 359 358 358 359 359 360 360 361 361 363 361 366 364 354 349 346 337 328 320 312 312 313 313 313 313 317 320
355 351 353 354 353 353 354 354 354 354 356 356 357 357 359 359 359 359 359 359 361 361 362 361 363 364 366 365 361 351 347 342 334 328 322 319 316 319 317 317 318 316 316
361 363 354 351 353 354 354 354 354 355 356 357 356 357 358 359 359 360 360 361 361 361 362 363 365 368 363 364 355 344 343 337 331 326 322 320 321 321 321 321 319 318 317
357 359 362 359 350 353 354 354 355 356 356 357 357 357 359 359 360 361 361 361 362 363 363 365 366 365 361 359 350 342 339 333 329 326 323 321 320 317 320 320 319 319 318
355 358 360 354 353 352 354 355 355 356 357 357 357 358 359 360 361 361 363 363 363 364 362 365 368 358 361 354 344 340 337 332 329 326 321 319 318 315 320 320 319 319 319
355 357 357 352 350 353 355 356 356 357 357 357 358 360 361 361 362 363 364 364 364 363 365 367 361 353 359 351 344 338 338 334 331 326 320 316 313 314 315 318 317 317 318
349 354 359 357 356 356 355 356 357 357 358 358 359 361 362 361 362 364 365 365 365 366 367 358 353 349 351 350 341 338 337 333 333 328 322 316 314 313 312 314 310 314 315
342 348 354 358 357 357 357 359 360 359 359 360 361 362 363 361 363 364 365 365 367 365 361 357 351 344 343 340 341 335 335 332 333 325 321 314 314 313 312 311 314 315 314
339 340 343 349 355 361 358 360 361 361 362 363 363 364 364 363 364 363 364 361 362 362 360 359 352 347 345 336 335 331 329 328 325 318 315 314 314 317 314 312 316 314 313
337 337 339 340 342 349 355 358 360 358 359 362 363 363 362 362 364 361 360 360 360 360 360 359 355 353 348 342 337 335 331 328 321 317 316 316 318 317 316 316 316 313 313
333 332 330 332 336 339 338 342 364 362 359 360 359 358 356 358 360 360 359 359 359 359 358 359 359 355 352 345 341 334 329 325 317 318 318 319 319 318 317 317 316 314 312
Wind_Speed
22 23 23 23 21 19 20 21 21 20 19 16 14 11 11 10 11 9 6 5 3 3 5 6 5 6 6 8 9 10 6 13 17 18 19 17 7 7 9 8 8 8 10
19 23 24 24 23 22 21 21 22 21 21 19 16 11 11 10 11 11 8 7 5 4 5 5 6 7 10 11 7 8 19 8 12 8 16 7 12 0 16 10 10 11 12
20 20 25 26 25 25 24 23 23 23 22 20 16 12 10 9 11 12 12 11 7 5 4 5 6 9 11 12 8 9 10 7 10 10 7 5 7 16 8 11 5 9 10
19 20 25 28 28 27 25 25 24 24 23 22 19 17 16 15 14 13 12 11 9 9 9 7 8 10 11 11 11 10 11 11 11 12 11 12 12 6 7 14 7 5 5
21 22 26 30 30 27 27 26 25 25 24 24 22 19 18 15 14 13 12 13 13 13 13 10 10 10 10 9 11 11 10 9 11 15 14 14 11 13 5 4 11 8 3
22 22 28 29 29 29 28 26 27 28 26 25 24 23 18 18 15 15 14 13 13 13 12 13 12 12 11 12 11 13 11 14 13 16 15 13 10 9 2 5 11 9 4
22 21 22 27 30 30 30 28 28 28 27 27 25 25 23 20 19 17 16 15 13 13 12 13 13 13 12 14 14 14 13 14 15 16 12 9 7 5 4 7 9 3 3
21 22 22 29 31 33 34 32 30 29 28 29 28 26 24 22 21 21 18 16 15 14 12 13 13 13 15 17 15 14 15 14 17 14 9 6 2 7 6 5 7 7 5
23 25 25 30 30 32 34 34 32 30 28 29 28 26 24 24 22 20 16 16 17 15 14 12 11 13 15 15 13 14 15 16 13 11 5 4 7 8 6 5 5 7 8
21 23 22 30 32 33 34 33 32 30 29 28 27 26 26 25 23 20 19 17 15 14 14 11 13 14 15 15 13 15 14 11 9 6 4 5 5 4 3 3 6 9 12
19 20 21 30 33 33 32 32 32 30 28 27 26 25 24 24 22 21 20 19 16 14 13 11 13 13 15 13 11 11 10 7 6 3 3 3 4 5 4 6 8 9 10
18 19 21 27 29 30 31 32 31 31 29 27 26 26 24 23 22 22 20 19 17 13 12 11 12 11 11 10 9 8 5 1 2 5 5 6 6 7 6 9 11 11 10
14 18 19 19 26 28 29 31 32 32 30 27 25 24 22 22 23 23 20 19 17 14 13 11 11 9 9 8 6 3 1 5 7 7 8 7 8 9 8 9 9 8 9
11 15 17 17 24 27 28 30 32 32 30 28 26 24 24 23 22 21 19 18 17 14 13 11 10 9 7 6 2 3 7 9 10 11 10 10 10 10 10 11 9 7 7
9 14 16 17 21 25 26 27 27 28 29 28 27 26 23 22 21 19 17 15 14 13 11 10 9 8 6 5 5 9 11 12 13 13 12 12 12 12 9 10 8 9 11
4 10 12 15 17 24 27 28 27 28 29 29 28 26 23 21 21 19 17 15 13 12 10 9 8 6 5 5 5 12 14 13 15 15 15 17 16 14 14 14 12 13 12
8 5 11 12 17 21 24 26 27 27 29 28 26 25 24 23 21 19 17 15 14 12 10 8 7 6 5 5 11 16 15 15 15 15 15 14 13 12 13 13 13 14 16
11 9 6 11 17 18 21 23 25 26 28 27 26 24 24 23 20 18 17 15 14 13 10 9 8 7 6 11 16 20 16 16 15 14 14 14 12 9 9 8 9 10 11
10 11 13 12 14 19 21 22 22 24 25 26 25 25 24 22 21 20 18 17 14 12 11 9 9 11 16 15 20 20 17 17 16 14 13 13 12 12 11 7 8 8 8
14 15 14 11 17 19 21 23 23 23 23 24 26 24 23 23 22 21 19 17 15 13 12 11 11 12 20 20 23 18 17 18 16 14 14 14 12 12 10 7 6 8 8
14 14 6 0 11 17 20 21 22 22 22 21 20 21 22 22 20 19 18 17 15 14 14 13 14 15 21 24 22 18 15 16 16 15 13 12 14 12 9 8 6 8 8
15 16 9 5 4 12 16 17 18 19 20 21 21 21 21 20 19 18 17 17 16 16 15 16 14 14 21 23 23 17 14 16 14 14 13 17 16 12 11 8 10 12 9
20 19 12 8 8 5 9 13 13 16 20 21 21 21 20 20 20 20 19 18 18 17 17 17 17 17 18 23 22 19 14 18 13 13 16 21 17 13 11 9 10 8 7
18 18 19 19 16 11 7 4 10 13 17 20 20 20 21 20 19 19 18 18 19 18 18 18 18 19 20 20 26 21 18 19 17 18 21 20 15 10 12 9 5 7 7
19 21 19 20 21 18 17 13 5 10 13 15 18 19 19 21 19 17 17 17 16 18 20 21 22 25 23 26 28 27 23 19 18 21 19 16 14 13 11 8 7 8 7
21 23 24 23 20 22 25 20 12 6 10 13 16 17 18 19 18 17 12 14 13 18 18 19 20 22 20 28 34 30 26 26 28 19 17 16 15 14 12 11 9 7 8
Wind_Direction
186 186 190 185 184 188 186 188 189 188 182 186 193 203 210 201 212 222 221 223 246 289 295 293 303 312 305 291 323 355 330 334 329 334 323 322 286 280 325 338 324 331 322
188 187 189 189 189 190 192 191 192 192 190 190 197 209 217 211 213 220 228 235 251 279 307 281 289 289 295 287 331 5 302 319 334 305 312 305 321 73 330 319 323 341 328
190 189 192 194 191 195 197 195 194 195 195 196 197 206 217 228 224 227 232 236 248 270 290 278 276 285 293 296 299 289 269 306 312 294 279 314 316 326 316 304 318 337 339
196 188 194 195 195 198 199 200 198 198 201 200 204 208 216 221 224 231 235 241 247 259 264 267 275 290 302 298 305 322 325 314 305 310 284 265 269 288 308 331 332 355 350
197 195 195 197 197 196 201 203 202 203 203 204 210 212 222 225 231 233 242 249 256 255 260 261 270 288 298 302 295 307 316 310 303 309 304 281 271 269 272 292 332 334 323
197 199 199 201 202 201 203 202 203 207 206 207 210 213 219 228 235 234 244 249 252 252 254 258 265 278 291 295 299 304 317 307 304 311 306 278 272 296 202 287 323 317 286
197 196 197 197 201 204 203 204 204 209 209 209 212 215 221 226 236 243 246 250 252 252 257 260 261 273 288 287 294 304 311 306 314 311 310 297 297 329 334 300 302 305 316
198 201 198 199 201 201 203 203 202 208 208 210 212 215 219 225 235 241 245 249 251 256 259 259 268 281 282 287 294 300 301 315 314 315 320 358 60 4 352 286 314 315 233
204 200 201 199 199 201 203 203 203 207 208 210 212 212 217 221 228 237 240 245 251 259 261 266 276 279 283 288 300 300 308 311 314 322 350 23 20 348 337 334 323 318 330
199 203 201 200 199 199 202 203 204 206 206 208 212 214 215 222 228 233 238 241 248 252 262 267 272 280 282 289 295 297 306 309 319 325 28 43 346 351 7 357 338 344 338
201 198 197 200 200 202 200 200 203 206 208 209 211 215 217 221 226 230 237 242 247 248 257 263 269 277 284 291 295 296 299 314 307 48 97 30 60 70 44 21 10 17 8
199 192 192 192 194 199 200 201 200 203 207 209 209 212 215 218 223 230 234 240 243 244 250 255 264 273 280 291 295 296 318 277 114 110 108 100 90 73 48 47 48 49 38
217 190 185 187 186 194 196 201 201 203 204 204 207 210 211 212 219 227 231 236 239 240 246 249 255 263 273 287 287 312 46 115 110 116 116 107 91 78 70 66 59 56 44
211 193 187 185 184 190 195 197 199 201 200 201 204 206 208 211 219 225 228 232 235 237 242 244 249 255 264 269 246 140 128 115 112 110 111 105 99 98 91 80 69 50 36
186 194 195 185 183 186 192 196 199 196 196 199 202 206 205 210 216 220 221 223 224 231 235 238 247 251 246 247 156 145 132 123 116 112 107 106 113 118 103 80 58 39 37
197 210 209 196 195 188 190 192 196 193 192 196 202 203 202 204 210 215 215 215 217 223 225 231 239 237 237 223 229 148 133 132 126 118 110 109 109 112 98 92 79 66 52
354 231 206 207 202 201 197 194 193 191 191 193 197 200 198 200 206 210 210 209 211 216 220 223 219 214 198 210 155 141 137 134 131 128 123 119 121 110 100 80 66 63 58
341 331 283 222 206 201 199 197 196 194 192 193 192 194 197 198 200 202 202 202 207 210 213 211 200 178 188 156 153 140 134 130 130 128 126 128 130 126 106 91 76 71 63
319 322 296 254 219 204 197 196 195 195 194 192 192 189 191 193 191 194 195 196 200 199 202 200 186 181 164 159 156 139 135 132 128 123 127 131 133 130 113 93 87 82 71
347 316 292 250 211 201 190 188 191 194 199 195 188 186 187 188 189 189 188 191 192 190 191 187 177 177 165 164 164 147 143 137 134 127 131 137 141 127 114 100 91 87 72
339 315 328 188 187 187 184 185 187 192 192 191 187 183 185 184 187 184 182 181 180 181 185 168 170 164 171 169 171 154 153 149 145 142 143 147 145 133 122 101 94 106 97
346 3 7 44 125 169 179 185 188 189 183 179 181 182 183 181 180 178 176 176 175 176 167 153 150 157 168 171 173 164 159 152 150 150 149 155 150 140 125 109 98 100 89
3 10 11 53 72 122 172 179 180 178 173 172 175 178 181 177 175 174 174 174 177 174 172 172 158 155 162 170 171 174 169 149 147 150 154 155 151 144 133 120 101 83 87
16 19 30 33 42 47 90 138 159 169 170 169 172 173 177 175 173 178 182 185 187 187 185 178 164 164 169 173 172 172 166 155 156 150 148 151 151 156 150 133 104 102 90
21 23 29 33 23 36 42 28 126 156 172 175 177 176 181 178 178 182 188 196 199 197 189 187 179 174 179 186 175 169 168 162 158 146 149 155 163 160 163 153 131 117 107
25 23 21 24 19 37 33 12 39 147 171 185 185 185 184 186 185 179 174 187 186 199 195 191 186 192 189 189 176 171 168 168 161 156 167 171 171 172 169 162 153 135 123